Location: Baia Mare
(47.6567°N, 23.5850°E)
Time: 10:53:43
(UTC+03:00)

ISS - Pass Details

Date: 08 May 2018
Orbit: 403 x 408 km, 51.6° (Epoch: 18 October)

Event Time Altitude Azimuth Distance (km) Brightness Sun altitude
Exits shadow 03:27:18 21° 124° (ESE) 979 -1.9 -19.5°
Drops below altitude 10° 03:29:18 10° 88° (E) 1,458 -0.6 -19.3°
Sets 03:31:34 0° 72° (ENE) 2,281 0.8 -19.1°
